Location: Greenhawk Observatory
(37.3417°N, 122.0298°W)
Time: 15:25:13
(UTC-07:00)

Daily predictions for brighter satellites

Satellite Brightness Start Highest point End
(mag) Time Altitude Azimuth Time Altitude Azimuth Time Altitude Azimuth
USA 229 DEB 4.0 19:16:48 10° NW 19:24:02 82° WSW 19:31:22 10° SSE
USA 229 4.0 19:16:54 10° NW 19:24:07 82° WSW 19:31:27 10° SSE
Cosmos 1937 Rocket 3.5 19:20:22 10° NNW 19:25:41 79° ENE 19:30:56 10° SSE
NOSS 3-1 (A) 4.4 19:21:06 10° NNW 19:28:27 47° NE 19:36:30 10° ESE
ATLAS CENTAUR R/B 3.9 19:14:13 10° NW 19:29:31 58° NE 19:34:37 10° ESE
Cosmos 540 Rocket 4.1 19:26:07 10° SSE 19:30:40 34° E 19:35:13 10° NE
Cosmos 1763 Rocket 3.8 19:31:06 10° SSW 19:36:11 73° WNW 19:41:21 10° NNE
Cosmos 1825 Rocket 4.2 19:31:52 10° NNW 19:36:15 63° W 19:40:37 10° S
NOSS 3-1 (C) 4.2 19:28:53 10° NNW 19:36:33 67° NE 19:45:00 10° SE
Cosmos 2184 Rocket 4.3 19:31:12 10° SSE 19:37:10 47° E 19:43:13 10° NNE
Meteor 2-13 Rocket 4.4 19:32:57 10° S 19:39:01 77° E 19:45:06 10° N
Cosmos 2298 Rocket 4.4 19:37:02 10° NNW 19:42:21 72° WSW 19:47:39 10° S
Cosmos 1805 4.5 19:40:09 10° SE 19:43:07 21° E 19:46:05 10° NE
SL-08 ROCKET BODY 4.3 19:37:54 10° S 19:43:46 82° E 19:49:45 10° N
Cosmos 1340 Rocket 3.8 19:43:37 10° NNW 19:47:36 52° W 19:51:34 10° S
Cosmos 2327 Rocket 4.4 19:49:51 10° S 19:55:51 61° E 20:01:50 10° NNE
Cosmos 304 Rocket 4.3 19:54:05 10° SSW 19:58:48 62° WNW 20:03:34 10° N
Cosmos 1943 Rocket 3.9 19:54:31 10° NW 19:59:33 35° WSW 20:04:37 10° SSW
BREEZE-M DEB (TANK) 4.0 19:43:05 10° SW 20:00:02 85° SSE 20:04:19 13° ENE
ISS -3.8 19:57:38 10° SW 20:00:51 61° SE 20:02:58 19° ENE
BREEZE-M (TANK) 3.9 19:48:25 10° NW 20:03:35 85° NE 20:06:34 19° ESE
OAO 3 Copernicus 4.4 19:59:42 10° W 20:04:44 69° S 20:07:56 22° ESE
Spot 2 Rocket 4.3 20:08:15 21° ESE 20:10:25 30° ENE 20:14:45 10° N
Thor Agena Rocket 4.2 20:09:48 10° N 20:14:57 58° WNW 20:19:59 10° SSW
Yuri Rocket 4.4 20:11:31 10° SW 20:15:27 25° S 20:17:06 20° SE
Meteor 1-24 Rocket 3.8 20:10:52 10° N 20:16:51 89° E 20:22:34 10° S
ALOS 3.5 20:13:16 10° S 20:17:42 43° W 20:22:10 10° NNW
SJ-6B 2.7 20:14:03 10° SSE 20:18:03 88° ENE 20:22:00 10° NNW
H-2A R/B 2.9 20:18:38 10° S 20:22:19 69° W 20:26:04 10° NNW
SJ 16-02 1.8 20:18:13 10° N 20:22:21 39° ENE 20:23:17 35° E
Cosmos 1953 2.8 20:22:55 36° E 20:22:55 36° E 20:26:37 10° NNE
FREGAT/IRIS 4.0 20:20:14 10° S 20:23:07 40° W 20:26:00 10° NNW
Resurs 1-3 3.9 20:26:48 37° ESE 20:27:52 44° ENE 20:32:03 10° N
Cosmos 783 Rocket 4.4 20:23:55 10° S 20:29:04 65° ESE 20:34:12 10° NNE
Cosmos 1356 3.3 20:27:44 10° N 20:31:12 61° E 20:31:16 61° E
Cosmos 1544 4.0 20:30:03 10° SSW 20:33:32 48° W 20:37:03 10° N
Cosmos 372 Rocket 3.9 20:32:46 10° NNW 20:38:03 83° ENE 20:41:02 27° SSE
Cosmos 1125 Rocket 3.5 20:33:35 10° NNW 20:38:55 86° WSW 20:42:36 20° SSE
Cosmos 2154 Rocket 3.9 20:36:18 10° S 20:42:32 86° E 20:48:49 10° N
Envisat 3.0 20:41:27 43° ESE 20:42:45 57° ENE 20:47:43 10° N
Cosmos 1812 Rocket 4.3 20:47:19 10° SSW 20:51:40 53° W 20:56:03 10° N
Cosmos 1674 3.8 20:49:29 10° N 20:51:42 33° N 20:51:42 33° N
Resurs 01 Rocket 1.6 20:53:18 52° S 20:54:22 84° W 20:58:48 10° NNW
Cosmos 2341 Rocket 3.8 20:50:13 10° S 20:56:23 78° E 21:02:37 10° N
SL-27 R/B 3.8 20:54:07 10° SW 20:57:32 41° WNW 21:01:01 10° N
GP-B 3.4 20:53:58 10° N 20:58:23 67° W 21:01:10 22° SSW
BREEZE-M DEB 4.4 20:54:07 10° WNW 20:58:55 26° WSW 20:59:40 24° SW
Milstar 3 Cent rocket 3.1 20:55:38 10° SW 20:59:30 28° S 20:59:30 28° S
Meteor 2-21 4.3 21:06:45 60° SE 21:07:32 66° E 21:13:36 10° NNE
Cosmos 1758 4.3 21:03:58 10° SSW 21:07:49 45° W 21:11:41 10° N
ATLAS 2AS CENTAUR R/B 3.4 21:02:52 10° NNW 21:10:25 43° NE 21:11:15 42° ENE
Cosmos 2369 4.0 21:05:40 10° NNW 21:10:35 52° NE 21:10:35 52° NE
Nadezhda 3 Rocket 4.4 21:08:56 10° NNW 21:15:07 62° W 21:19:51 17° SSW
Meteor 1-21 Rocket 4.3 21:15:21 10° NNW 21:21:02 71° W 21:22:01 58° SSW
MOS 1-B Rocket 4.4 21:21:13 30° S 21:24:09 59° WSW 21:29:47 10° NNW
Cosmos 2285 Rocket 4.0 21:17:51 10° SSW 21:24:16 82° WNW 21:30:45 10° NNE
ISS -0.3 21:35:16 10° WNW 21:35:40 12° WNW 21:35:40 12° WNW
SL-8 Rocket 4.1 21:44:03 68° WNW 21:44:03 68° WNW 21:49:53 10° N
Cosmos 2278 4.3 21:39:42 10° NNW 21:43:56 51° NW 21:43:56 51° NW
Centaur D AC-29 3.7 21:45:50 10° WSW 21:48:37 18° SW 21:48:37 18° SW
SJ 16-02 4.0 21:58:02 10° WNW 22:00:20 15° W 22:00:20 15° W
Cosmos 1697 Rocket 4.2 21:59:12 10° NNW 22:02:01 31° NNW 22:02:01 31° NNW
Cosmos 1980 Rocket 4.1 22:01:25 10° NNW 22:03:23 22° N 22:03:23 22° N
ATLAS 2AS CENTAUR R/B 4.3 22:54:08 10° NW 22:58:42 32° WNW 22:58:42 32° WNW
